STARLINK-3981, 52687

Orbit data source: Space-Track

STARLINK-3981, 52687 is a payload satellite owned by SpaceX/Seattle (US) in LEO that was launched on Wed, 18 May 2022 UTC via an FALCON 9 launch vehicle from the Air Force Eastern Test Range (AFETR). Payload-class satellites include a variety of spacecraft equipped with specific instruments for various scientific and technological missions. These include communications satellites like Starlink; space stations such as the ISS; scientific satellites like the Hubble; Earth observation satellites from companies like Planet Labs, Umbra, and HawkEye 360; GPS; miniature CubeSats for education and research; and military/defense satellites.

Loading next visibility...
Identifier
52687, 2022-053AH
Orbit
LEO
Country
Flag of USUS
Related business
Manufacturer
SpaceX/Seattle
Mission
Operational Commercial Communications
Bus & Motor
STARLINK, Unknown motor
Mass
297 kg wet, ~275 kg dry
Launch date (UTC)
2022-05-18 (4 years ago)
Launch vehicle
FALCON 9
Launch site
Air Force Eastern Test Range (AFETR)
Object type
Payload
Rocket body
Debris
Shape & HBR
Box + 1 Pan, 10.1 m
Radar Cross Section
13.562 m², Large (>1 m²)

Expand to show TLE details & history
Last TLE update: 2 days ago

TLE from 2 days ago
0 STARLINK-3981
1 52687U 22053AH  26171.06617424 -.00000089  00000-0  12505-4 0  9992
2 52687  53.1602  44.4220 0001431  98.0057 262.1096 15.08835426226571
Epoch: 2026-06-20T01:35Z
TLE epoch observation values (Epoch: 2026-06-20T01:35:17.454Z)
Latitude
-0.00008°
Longitude
112.31308°
Altitude
540.785 km
Speed
7.593 km/s
True Right ascension
02h 57m 41s
True Declination
0° 00' 00"
Sunlit
Object was in daylight at epoch
Visualization orbit readout
Latitude
Unknown
Longitude
Unknown
Altitude
Unknown
Speed
Unknown
Apparent Right ascension
Unknown
Apparent Declination
Unknown
Sunlit
N/A
Visualization observer readout
Local Sidereal Time
21:26:07
Azimuth
Unknown
Elevation
Unknown
Doppler factor
Unknown
Orbital elements
Apogee altitude
541.001 km
Perigee altitude
539.021 km
Semi-major axis
6,918.148 km
Eccentricity
0.00014
Inclination
53.1602°
RAAN
44.422°
Arg. of periapsis
98.0057°
True anomaly
262.09336°
Mean anomaly
262.1096°
Eccentric anomaly
262.10148°
Mean motion
3.77188 °/min
Orbital period
95.44 mins
BSTAR
0.000012505
Loading maneuver chart data...
Computing Atmospheric mass density...
Loading historical data...
Loading historical data...
Loading historical data...
Loading historical data...
Loading historical data...
Loading historical data...
Loading historical data...

Documentation

Showing up to 5 results
|